Hourly Data Report for May 08, 2020

OTTAWA INTL A
ONTARIO
Current Station Operator: NAVCAN

45°19'00.000" N
75°40'00.000" W
114.90 m
6106001
71628
YOW

Download Data

Hourly Data (May 2020)
Hourly Data Report for May 8, 2020
TIME
LST
Temp Definition
°C
Dew Point Definition
°C
Rel Hum Definition
%
Precip. Amount Definition
mm

Wind Dir Definition
10's deg

Wind Spd Definition
km/h
Visibility Definition
km
Stn Press Definition
kPa
Hmdx Definition


Wind Chill Definition


Weather Definition


00:00 1.9 -9.1 44   2 8 24.1 99.39     LegendNANA
01:00 0.9 -8.6 49   2 8 24.1 99.37     Mainly Clear
02:00 0.0 -7.8 56   8 4 24.1 99.36   -1 LegendNANA
03:00 0.2 -6.7 60   11 5 24.1 99.33     LegendNANA
04:00 0.6 -6.7 58   8 10 24.1 99.27     Mostly Cloudy
05:00 0.8 -6.7 57   6 13 24.1 99.26     Snow Grains,Snow Pellets
06:00 0.7 -6.6 58   5 18 24.1 99.26     Snow Showers
07:00 0.3 -6.1 62   2 20 12.9 99.31     Snow Showers
08:00 0.1 -3.2 79   3 16 4.0 99.38     Snow Showers
09:00 0.4 -5.3 65   30 9 24.1 99.42     LegendNANA
10:00 2.0 -6.4 54   36 15 24.1 99.46     Mostly Cloudy
11:00 1.7 -7.5 50   3 12 24.1 99.48     LegendNANA
12:00 2.9 -6.7 49   31 15 24.1 99.47     Snow Showers
13:00 3.0 -6.2 51   30 16 24.1 99.46     Mostly Cloudy
14:00 3.9 -6.3 47   32 15 24.1 99.41     LegendNANA
15:00 4.5 -7.7 41   27 10 24.1 99.36     LegendNANA
16:00 5.5 -7.1 40   31 16 24.1 99.30     Mostly Cloudy
17:00 4.9 -7.6 40   28 23 24.1 99.30     LegendNANA
18:00 4.6 -9.3 36   30 23 24.1 99.27     LegendNANA
19:00 3.2 -9.4 39   33 25 24.1 99.30     Mostly Cloudy
20:00 1.8 -8.6 46   32 22 24.1 99.33     LegendNANA
21:00 1.0 -8.1 51   33 21 24.1 99.34     LegendNANA
22:00 0.9 -8.3 50   32 20 24.1 99.35     Mostly Cloudy
23:00 0.9 -9.8 45   33 27 24.1 99.35     LegendNANA

Notes on Data Quality.

Legend

  • E = Estimated
  • M = Missing
  • NA = Not Available*
  • [empty] = Indicates an unobserved value
Date modified: